Location: Las Callecitas
(9.8750°N, 67.4611°W)
Time: 21:13:37
(UTC+00:00)

Cosmos 1400 Rocket - Pass Details

Date: 14 April 2024
Orbit: 503 x 544 km, 81.2° (Epoch: 18 May)

Event Time Altitude Azimuth Distance (km) Brightness Sun altitude
Rises 09:51:21 0° 178° (S) 2,590 6.2 -7.7°
Reaches altitude 10° 09:53:30 10° 174° (S) 1,708 5.3 -7.2°
Maximum altitude 09:57:10 56° 95° (E) 602 3.5 -6.3°
Drops below altitude 10° 10:00:52 10° 16° (NNE) 1,721 5.7 -5.4°
Sets 10:03:02 0° 12° (NNE) 2,612 6.6 -4.9°
